EUTELSAT 117 WEST B (41589 NORAD) Tracking and Keplerian Element Data

This shows tracking and keplerian element data for the satellite.

Feedback or suggestion? Click here.




ElementValue
Catalog41589
NameEUTELSAT 117 WEST B
Epoch Orbit2307
Epoch Day269.51438139
Epoch Year2022
RAAN37.9971
Inclination0.0247
Eccentricity1.71E-05
Argument of Perigee103.9172
Mean Anonmoly291.5801
Mean Motion1.00275188
Decay Rate-1E-07
L11 41589U 16038B 22269.51438139 -.00000010 00000+0 00000+0 0 9990
L22 41589 0.0247 37.9971 0000171 103.9172 291.5801 1.00275188 23070

Live tracking and technical data element details for EUTELSAT 117 WEST B (NORAD 41589). EUTELSAT 117 WEST B can be tracked NOW for your location showing map with azimuth and elevation plus other details from your city location.

Track the satellite on the map from your city or location and see movement details for azimuth, elevation, latitude, longitude, range, height, and movement on the map or in text.







IsCatalogInMostPopularTable: catalog: 41589, numindb: 616
Update: records affected: 1



GetName: 41589 EUTELSAT 117 WEST B

Hit Count: updated at: Wed, 28 Sep 2022 22:32:36 GMT